Charlotte, NC

12:35 AM EDT on September 26, 2016 (GMT -0400)
Charlotte-Douglas International

Weather History for KCLT - January, 2003

Change the Weather History Date:

Wednesday, January 8, 2003

  Actual Average Record
Temperature  
Mean Temperature 48 °F 40 °F  
Max Temperature 60 °F 50 °F 74 °F (1890)
Min Temperature 37 °F 29 °F 8 °F (1970)
Degree Days  
Heating Degree Days 16 25  
Month to date heating degree days 200  
Since 1 July heating degree days 1537  
Cooling Degree Days 0 0  
Month to date cooling degree days 0  
Year to date cooling degree days 0  
Moisture  
Dew Point 25 °F    
Average Humidity 40    
Maximum Humidity 50    
Minimum Humidity 32    
Precipitation  
Precipitation 0.00 in 0.11 in 1.47 in (1932)
Month to date precipitation 0.89  
Year to date precipitation 0.89  
Snow  
Snow 0.00 in 0.10 in 3.60 in (1926)
Month to date snowfall 0.4  
Since 1 July snowfall 0.8  
Snow Depth -    
Sea Level Pressure  
Sea Level Pressure 29.73 in    
Wind  
Wind Speed 8 mph (SW)    
Max Wind Speed 14 mph    
Max Gust Speed 18 mph    
Visibility 10 miles    
Events      
T = Trace of Precipitation, MM = Missing Value Source: NWS Daily Summary

Daily Weather History Graph

Daily Weather History Graph

Search for Another Location

Airport or City:

Trip Planner

Search our weather history database for the weather conditions in past years. The results will help you decide how hot, cold, wet, or windy it might be!

Date:

Astronomy

Jan. 08, 2003 Rise Set
Actual Time 7:32 AM EST 5:28 PM EST
Civil Twilight 7:05 AM EST 5:56 PM EST
Nautical Twilight 6:33 AM EST 6:27 PM EST
Astronomical Twilight 6:02 AM EST 6:58 PM EST
Moon 11:27 AM EST (1/8) 11:23 PM EST (1/8)
Length of Visible Light 10h 51m
Length of Day
9h 55m
Waxing Crescent, 33% of the Moon is Illuminated
Jan 8
Waxing Crescent
Jan 10
First Quarter
Jan 18
Full
Jan 25
Last Quarter
Feb 1
New

Hourly Weather History & Observations

Time (EST) Temp. Windchill Dew Point Humidity Pressure Visibility Wind Dir Wind Speed Gust Speed Precip Events Conditions
12:51 AM 37.9 °F 32.1 °F 10.9 °F 33% 29.86 in 10.0 mi WSW 8.1 mph - N/A   Clear
1:51 AM 37.9 °F 32.1 °F 10.0 °F 32% 29.83 in 10.0 mi SW 8.1 mph - N/A   Partly Cloudy
2:51 AM 37.9 °F 33.5 °F 10.0 °F 32% 29.83 in 10.0 mi Variable 5.8 mph - N/A   Scattered Clouds
3:51 AM 37.0 °F 32.4 °F 12.0 °F 36% 29.80 in 10.0 mi Variable 5.8 mph - N/A   Scattered Clouds
4:51 AM 37.0 °F 31.0 °F 14.0 °F 39% 29.78 in 10.0 mi SW 8.1 mph - N/A   Mostly Cloudy
5:51 AM 37.0 °F 31.0 °F 16.0 °F 42% 29.77 in 10.0 mi SSW 8.1 mph - N/A   Mostly Cloudy
6:51 AM 37.0 °F 31.6 °F 18.0 °F 46% 29.76 in 10.0 mi Variable 6.9 mph - N/A   Mostly Cloudy
7:51 AM 37.9 °F 32.7 °F 19.0 °F 47% 29.75 in 10.0 mi SW 6.9 mph - N/A   Mostly Cloudy
8:51 AM 39.0 °F 33.4 °F 21.0 °F 49% 29.77 in 10.0 mi SW 8.1 mph - N/A   Mostly Cloudy
9:51 AM 44.1 °F 39.0 °F 24.1 °F 45% 29.78 in 10.0 mi WSW 9.2 mph - N/A   Mostly Cloudy
10:51 AM 48.9 °F - 26.1 °F 41% 29.76 in 10.0 mi WSW 9.2 mph - N/A   Mostly Cloudy
11:51 AM 54.0 °F - 28.9 °F 38% 29.73 in 10.0 mi WSW 8.1 mph - N/A   Mostly Cloudy
12:51 PM 59.0 °F - 30.0 °F 33% 29.70 in 10.0 mi SW 12.7 mph 18.4 mph N/A   Mostly Cloudy
1:51 PM 60.1 °F - 30.0 °F 32% 29.69 in 10.0 mi SW 11.5 mph 17.3 mph N/A   Mostly Cloudy
2:51 PM 60.1 °F - 32.0 °F 35% 29.68 in 10.0 mi South 13.8 mph - N/A   Mostly Cloudy
3:51 PM 60.1 °F - 33.1 °F 36% 29.68 in 10.0 mi SSW 9.2 mph - N/A   Mostly Cloudy
4:51 PM 57.9 °F - 30.9 °F 36% 29.68 in 10.0 mi SSW 11.5 mph - N/A   Mostly Cloudy
5:51 PM 55.9 °F - 32.0 °F 40% 29.68 in 10.0 mi SW 6.9 mph - N/A   Scattered Clouds
6:51 PM 54.0 °F - 33.1 °F 45% 29.68 in 10.0 mi South 9.2 mph - N/A   Scattered Clouds
7:51 PM 53.1 °F - 34.0 °F 48% 29.68 in 10.0 mi South 8.1 mph - N/A   Scattered Clouds
8:51 PM 51.1 °F - 33.1 °F 50% 29.66 in 10.0 mi SSW 6.9 mph - N/A   Scattered Clouds
9:51 PM 52.0 °F - 32.0 °F 47% 29.65 in 10.0 mi Variable 5.8 mph - N/A   Scattered Clouds
10:51 PM 52.0 °F - 32.0 °F 47% 29.63 in 10.0 mi Variable 5.8 mph - N/A   Scattered Clouds
11:51 PM 52.0 °F - 30.0 °F 43% 29.60 in 10.0 mi SSW 8.1 mph - N/A   Scattered Clouds